Location: Bernay
(48.6766°N, 2.9386°E)
Time: 22:02:32
(UTC+00:00)

Meteor 1-12 Rocket - Pass Details

Date: 12 January 2026
Orbit: 853 x 925 km, 81.2° (Epoch: 18 February)

Event Time Altitude Azimuth Distance (km) Brightness Sun altitude
Rises 17:50:32 0° 351° (N) 3,453 7.3 -15.0°
Reaches altitude 10° 17:53:03 10° 355° (N) 2,506 6.5 -15.4°
Maximum altitude 17:58:37 55° 74° (ENE) 1,019 4.3 -16.3°
Drops below altitude 10° 18:04:07 10° 152° (SSE) 2,480 6.5 -17.2°
Sets 18:06:35 0° 157° (SSE) 3,414 7.3 -17.6°
